Location: Los Ranchitos
(37.9930°N, 122.5425°W)
Time: 08:33:43
(UTC+00:00)

Okean 2 Rocket - Pass Details

Date: 21 September 2020
Orbit: 616 x 642 km, 82.5° (Epoch: 28 October)

Event Time Altitude Azimuth Distance (km) Brightness Sun altitude
Rises 02:47:49 0° 166° (SSE) 2,930 6.3 -8.4°
Reaches altitude 10° 02:50:11 10° 158° (SSE) 2,024 5.4 -8.9°
Maximum altitude 02:54:18 37° 91° (E) 1,002 3.6 -9.7°
Drops below altitude 10° 02:58:25 10° 25° (NNE) 2,026 5.5 -10.5°
Sets 03:00:47 0° 17° (NNE) 2,934 6.5 -10.9°
